TimeEDT,TemperatureF,Dew PointF,Humidity,Sea Level PressureIn,VisibilityMPH,Wind Direction,Wind SpeedMPH,Gust SpeedMPH,PrecipitationIn,Events,Conditions,WindDirDegrees,DateUTC
12:54 AM,33.1,30.9,92,29.94,10.0,Calm,Calm,-,N/A,,Overcast,0,2013-03-17 04:54:00
1:27 AM,33.8,30.2,87,29.93,10.0,Calm,Calm,-,N/A,,Mostly Cloudy,0,2013-03-17 05:27:00
1:54 AM,32.0,28.9,88,29.94,9.0,Calm,Calm,-,N/A,,Clear,0,2013-03-17 05:54:00
2:54 AM,30.0,28.0,92,29.97,10.0,Calm,Calm,-,N/A,,Partly Cloudy,0,2013-03-17 06:54:00
3:14 AM,30.2,28.4,93,29.98,10.0,Calm,Calm,-,N/A,,Mostly Cloudy,0,2013-03-17 07:14:00
3:26 AM,28.4,26.6,93,29.98,10.0,Calm,Calm,-,N/A,,Scattered Clouds,0,2013-03-17 07:26:00
3:54 AM,30.0,27.0,88,29.99,10.0,Calm,Calm,-,N/A,,Clear,0,2013-03-17 07:54:00
4:50 AM,28.4,26.6,93,29.99,8.0,Calm,Calm,-,N/A,,Mostly Cloudy,0,2013-03-17 08:50:00
4:54 AM,28.0,27.0,96,29.99,8.0,Calm,Calm,-,N/A,,Mostly Cloudy,0,2013-03-17 08:54:00
5:54 AM,30.0,27.0,88,30.03,10.0,Calm,Calm,-,N/A,,Overcast,0,2013-03-17 09:54:00
6:54 AM,32.0,25.0,75,30.08,10.0,North,6.9,-,N/A,,Overcast,350,2013-03-17 10:54:00
7:54 AM,30.9,24.1,76,30.10,10.0,NNE,3.5,-,N/A,,Overcast,30,2013-03-17 11:54:00
8:54 AM,30.9,21.9,69,30.14,10.0,North,11.5,-,N/A,,Overcast,10,2013-03-17 12:54:00
9:54 AM,30.9,19.9,64,30.17,10.0,North,8.1,-,N/A,,Overcast,10,2013-03-17 13:54:00
10:54 AM,33.1,19.9,59,30.15,10.0,North,9.2,-,N/A,,Partly Cloudy,360,2013-03-17 14:54:00
11:54 AM,34.0,19.9,56,30.17,10.0,North,4.6,-,N/A,,Partly Cloudy,360,2013-03-17 15:54:00
12:54 PM,36.0,21.0,55,30.18,10.0,North,9.2,-,N/A,,Mostly Cloudy,360,2013-03-17 16:54:00
1:54 PM,37.0,21.9,54,30.17,10.0,NW,6.9,-,N/A,,Partly Cloudy,320,2013-03-17 17:54:00
2:54 PM,39.0,21.9,50,30.16,10.0,North,8.1,-,N/A,,Mostly Cloudy,360,2013-03-17 18:54:00
3:54 PM,37.9,21.0,51,30.17,10.0,NNW,4.6,-,N/A,,Scattered Clouds,340,2013-03-17 19:54:00
4:54 PM,37.0,19.9,50,30.18,10.0,NNE,8.1,-,N/A,,Mostly Cloudy,30,2013-03-17 20:54:00
5:54 PM,37.0,19.0,48,30.20,10.0,North,6.9,-,N/A,,Clear,350,2013-03-17 21:54:00
6:54 PM,36.0,19.0,50,30.22,10.0,NNW,4.6,-,N/A,,Clear,340,2013-03-17 22:54:00
7:54 PM,35.1,18.0,50,30.25,10.0,North,3.5,-,N/A,,Clear,10,2013-03-17 23:54:00
8:54 PM,33.1,19.9,59,30.27,10.0,Calm,Calm,-,N/A,,Clear,0,2013-03-18 00:54:00
9:54 PM,32.0,21.0,64,30.30,10.0,Calm,Calm,-,N/A,,Clear,0,2013-03-18 01:54:00
10:54 PM,32.0,18.0,56,30.30,10.0,NE,4.6,-,N/A,,Clear,40,2013-03-18 02:54:00
11:54 PM,30.9,18.0,59,30.30,10.0,NNE,3.5,-,N/A,,Clear,30,2013-03-18 03:54:00